Weather History for Camden, SC

Change the Weather History Date:

Friday, December 21, 2012

  Actual Average (KSSC) Record (KSSC)
Temperature  
Mean Temperature 44 °F -  
Max Temperature 48 °F 53 °F 78 °F (2013)
Min Temperature 37 °F 32 °F 17 °F (1996)
Degree Days  
Heating Degree Days 22    
Moisture  
Dew Point 27 °F    
Average Humidity 52    
Maximum Humidity 66    
Minimum Humidity 40    
Precipitation  
Precipitation 0.00 in - - ()
Sea Level Pressure  
Sea Level Pressure 29.82 in    
Wind  
Wind Speed 18 mph (West)    
Max Wind Speed 24 mph    
Max Gust Speed 38 mph    
Visibility 10 miles    
Events      
Averages and records for this station are not official NWS values.
T = Trace of Precipitation, MM = Missing Value Source: NWS Daily Summary

Daily Weather History Graph

Daily Weather History Graph

Search for Another Location

Airport:

Trip Planner

Search our weather history database for the weather conditions in past years. The results will help you decide how hot, cold, wet, or windy it might be!

Date:

Astronomy

Dec. 21, 2012 Rise Set
Actual Time 7:24 AM EST 5:16 PM EST
Civil Twilight 6:56 AM EST 5:44 PM EST
Nautical Twilight 6:25 AM EST 6:15 PM EST
Astronomical Twilight 5:54 AM EST 6:46 PM EST
Moon 12:53 PM EST (12/21) 1:20 AM EST (12/21)
Length of Visible Light 10h 47m
Length of Day
9h 51m
Waxing Gibbous, 64% of the Moon is Illuminated
Dec 21
Waxing Gibbous
Dec 28
Full
Jan 4
Last Quarter
Jan 11
New
Jan 18
First Quarter

Hourly Weather History & Observations

Time (EST) Temp. Windchill Dew Point Humidity Pressure Visibility Wind Dir Wind Speed Gust Speed Precip Events Conditions
12:15 AM 48.2 °F - 37.4 °F 66% 29.72 in 10.0 mi West 21.9 mph 33.4 mph 0.00 in   Scattered Clouds
12:35 AM 46.4 °F 38.7 °F 32.0 °F 57% 29.74 in 10.0 mi WSW 20.7 mph 33.4 mph 0.00 in   Partly Cloudy
12:55 AM 44.6 °F 36.4 °F 32.0 °F 61% 29.74 in 10.0 mi West 20.7 mph 29.9 mph 0.00 in   Clear
1:15 AM 44.6 °F 36.4 °F 32.0 °F 61% 29.74 in 10.0 mi WSW 20.7 mph 28.8 mph 0.00 in   Clear
1:35 AM 44.6 °F 36.4 °F 32.0 °F 61% 29.74 in 10.0 mi WSW 20.7 mph 27.6 mph 0.00 in   Clear
1:55 AM 44.6 °F 37.8 °F 32.0 °F 61% 29.74 in 10.0 mi WSW 15.0 mph 28.8 mph 0.00 in   Clear
2:15 AM 44.6 °F 37.8 °F 32.0 °F 61% 29.75 in 10.0 mi West 15.0 mph 25.3 mph 0.00 in   Clear
2:35 AM 44.6 °F 37.8 °F 32.0 °F 61% 29.74 in 10.0 mi WSW 15.0 mph 24.2 mph 0.00 in   Clear
2:55 AM 42.8 °F 34.8 °F 32.0 °F 66% 29.74 in 10.0 mi WSW 17.3 mph 24.2 mph 0.00 in   Clear
3:15 AM 42.8 °F 34.8 °F 32.0 °F 66% 29.75 in 10.0 mi West 17.3 mph 20.7 mph 0.00 in   Clear
3:35 AM 42.8 °F 35.1 °F 32.0 °F 66% 29.75 in 10.0 mi West 16.1 mph 24.2 mph 0.00 in   Clear
3:55 AM 42.8 °F 34.8 °F 30.2 °F 61% 29.75 in 10.0 mi West 17.3 mph 23.0 mph 0.00 in   Clear
4:15 AM 42.8 °F 34.8 °F 30.2 °F 61% 29.75 in 10.0 mi WSW 17.3 mph 20.7 mph 0.00 in   Clear
4:35 AM 42.8 °F 34.5 °F 30.2 °F 61% 29.74 in 10.0 mi WSW 18.4 mph 24.2 mph 0.00 in   Clear
4:55 AM 42.8 °F 34.8 °F 28.4 °F 57% 29.73 in 10.0 mi WSW 17.3 mph 25.3 mph 0.00 in   Clear
5:15 AM 42.8 °F 35.4 °F 30.2 °F 61% 29.74 in 10.0 mi WSW 15.0 mph 24.2 mph 0.00 in   Clear
5:35 AM 42.8 °F 35.4 °F 30.2 °F 61% 29.75 in 10.0 mi WSW 15.0 mph 21.9 mph 0.00 in   Clear
5:55 AM 42.8 °F 34.8 °F 28.4 °F 57% 29.75 in 10.0 mi WSW 17.3 mph 25.3 mph 0.00 in   Clear
6:15 AM 42.8 °F 34.0 °F 28.4 °F 57% 29.75 in 10.0 mi WSW 20.7 mph 27.6 mph 0.00 in   Clear
7:15 AM 42.8 °F 35.1 °F 30.2 °F 61% 29.77 in 10.0 mi WSW 16.1 mph 25.3 mph 0.00 in   Clear
7:35 AM 41.0 °F 31.6 °F 30.2 °F 65% 29.78 in 10.0 mi WSW 20.7 mph 28.8 mph 0.00 in   Clear
7:55 AM 41.0 °F 31.9 °F 28.4 °F 61% 29.78 in 10.0 mi WSW 19.6 mph 29.9 mph 0.00 in   Clear
8:15 AM 41.0 °F 31.1 °F 28.4 °F 61% 29.78 in 10.0 mi WSW 23.0 mph 32.2 mph 0.00 in   Clear
8:35 AM 41.0 °F 32.5 °F 26.6 °F 57% 29.79 in 10.0 mi WSW 17.3 mph 28.8 mph 0.00 in   Clear
8:55 AM 41.0 °F 31.4 °F 26.6 °F 57% 29.80 in 10.0 mi WSW 21.9 mph 29.9 mph 0.00 in   Clear
9:15 AM 41.0 °F 32.8 °F 26.6 °F 57% 29.81 in 10.0 mi WSW 16.1 mph 26.5 mph 0.00 in   Clear
9:35 AM 42.8 °F 34.0 °F 26.6 °F 53% 29.81 in 10.0 mi West 20.7 mph 29.9 mph 0.00 in   Clear
9:55 AM 42.8 °F 33.5 °F 26.6 °F 53% 29.82 in 8.0 mi West 23.0 mph 32.2 mph 0.00 in   Clear
10:15 AM 42.8 °F 33.3 °F 26.6 °F 53% 29.82 in 10.0 mi West 24.2 mph 35.7 mph 0.00 in   Clear
10:35 AM 44.6 °F 37.2 °F 26.6 °F 49% 29.83 in 10.0 mi West 17.3 mph 28.8 mph 0.00 in   Clear
10:55 AM 44.6 °F 36.4 °F 26.6 °F 49% 29.83 in 10.0 mi West 20.7 mph 25.3 mph 0.00 in   Clear
11:15 AM 44.6 °F 35.7 °F 26.6 °F 49% 29.82 in 10.0 mi West 24.2 mph 38.0 mph 0.00 in   Clear
11:35 AM 44.6 °F 36.9 °F 26.6 °F 49% 29.82 in 10.0 mi West 18.4 mph 26.5 mph 0.00 in   Clear
11:55 AM 46.4 °F 38.5 °F 26.6 °F 46% 29.81 in 10.0 mi West 21.9 mph 32.2 mph 0.00 in   Clear
12:15 PM 46.4 °F 38.3 °F 26.6 °F 46% 29.81 in 10.0 mi West 23.0 mph 31.1 mph 0.00 in   Clear
12:35 PM 46.4 °F 38.5 °F 26.6 °F 46% 29.80 in 10.0 mi West 21.9 mph 31.1 mph 0.00 in   Clear
12:55 PM 46.4 °F 39.8 °F 26.6 °F 46% 29.79 in 10.0 mi West 16.1 mph 26.5 mph 0.00 in   Partly Cloudy
1:15 PM 46.4 °F 38.3 °F 26.6 °F 46% 29.79 in 10.0 mi West 23.0 mph 33.4 mph 0.00 in   Scattered Clouds
1:35 PM 46.4 °F 38.7 °F 26.6 °F 46% 29.79 in 10.0 mi West 20.7 mph 26.5 mph 0.00 in   Scattered Clouds
1:55 PM 48.2 °F - 26.6 °F 43% 29.79 in 10.0 mi West 21.9 mph 29.9 mph 0.00 in   Mostly Cloudy
2:15 PM 48.2 °F - 24.8 °F 40% 29.79 in 10.0 mi West 21.9 mph 31.1 mph 0.00 in   Mostly Cloudy
2:35 PM 48.2 °F - 24.8 °F 40% 29.80 in 10.0 mi West 16.1 mph 28.8 mph 0.00 in   Scattered Clouds
2:55 PM 48.2 °F - 24.8 °F 40% 29.80 in 10.0 mi West 18.4 mph 28.8 mph 0.00 in   Mostly Cloudy
3:15 PM 46.4 °F 39.0 °F 24.8 °F 43% 29.81 in 10.0 mi West 19.6 mph 27.6 mph 0.00 in   Mostly Cloudy
3:35 PM 46.4 °F 40.1 °F 24.8 °F 43% 29.82 in 10.0 mi West 15.0 mph 34.5 mph 0.00 in   Partly Cloudy
3:55 PM 46.4 °F 41.1 °F 26.6 °F 46% 29.83 in 10.0 mi West 11.5 mph - 0.00 in   Scattered Clouds
4:15 PM 48.2 °F - 24.8 °F 40% 29.83 in 10.0 mi West 16.1 mph 26.5 mph 0.00 in   Mostly Cloudy
4:35 PM 46.4 °F 39.8 °F 24.8 °F 43% 29.84 in 10.0 mi West 16.1 mph 23.0 mph 0.00 in   Partly Cloudy
4:55 PM 46.4 °F 40.1 °F 26.6 °F 46% 29.84 in 10.0 mi West 15.0 mph 23.0 mph 0.00 in   Partly Cloudy
5:15 PM 46.4 °F 40.7 °F 26.6 °F 46% 29.85 in 10.0 mi West 12.7 mph 20.7 mph 0.00 in   Scattered Clouds
5:35 PM 46.4 °F 39.8 °F 24.8 °F 43% 29.86 in 10.0 mi West 16.1 mph 23.0 mph 0.00 in   Mostly Cloudy
5:55 PM 44.6 °F 37.8 °F 24.8 °F 46% 29.87 in 10.0 mi West 15.0 mph 19.6 mph 0.00 in   Partly Cloudy
6:15 PM 44.6 °F 38.1 °F 24.8 °F 46% 29.87 in 10.0 mi West 13.8 mph 19.6 mph 0.00 in   Clear
6:35 PM 42.8 °F 36.6 °F 24.8 °F 49% 29.88 in 10.0 mi West 11.5 mph - 0.00 in   Clear
6:55 PM 42.8 °F 37.0 °F 24.8 °F 49% 29.89 in 10.0 mi West 10.4 mph - 0.00 in   Clear
7:15 PM 42.8 °F 37.0 °F 24.8 °F 49% 29.89 in 10.0 mi West 10.4 mph - 0.00 in   Clear
7:35 PM 42.8 °F 36.6 °F 24.8 °F 49% 29.90 in 10.0 mi West 11.5 mph - 0.00 in   Clear
7:55 PM 42.8 °F 36.6 °F 24.8 °F 49% 29.90 in 10.0 mi WSW 11.5 mph - 0.00 in   Clear
8:15 PM 42.8 °F 37.0 °F 23.0 °F 46% 29.91 in 10.0 mi West 10.4 mph 16.1 mph 0.00 in   Clear
8:35 PM 41.0 °F 35.2 °F 24.8 °F 53% 29.91 in 10.0 mi West 9.2 mph - 0.00 in   Clear
8:55 PM 41.0 °F 35.2 °F 23.0 °F 49% 29.91 in 10.0 mi West 9.2 mph - 0.00 in   Clear
9:15 PM 41.0 °F 36.4 °F 23.0 °F 49% 29.92 in 10.0 mi West 6.9 mph - 0.00 in   Clear
9:35 PM 41.0 °F 34.3 °F 23.0 °F 49% 29.93 in 10.0 mi West 11.5 mph - 0.00 in   Clear
9:55 PM 41.0 °F 35.2 °F 23.0 °F 49% 29.93 in 10.0 mi West 9.2 mph - 0.00 in   Clear
10:15 PM 39.2 °F 33.6 °F 23.0 °F 52% 29.94 in 10.0 mi West 8.1 mph - 0.00 in   Clear
10:35 PM 39.2 °F 33.0 °F 23.0 °F 52% 29.94 in 10.0 mi WSW 9.2 mph - 0.00 in   Clear
10:55 PM 39.2 °F 32.5 °F 23.0 °F 52% 29.95 in 10.0 mi West 10.4 mph - 0.00 in   Clear
11:15 PM 39.2 °F 31.6 °F 23.0 °F 52% 29.94 in 10.0 mi West 12.7 mph - 0.00 in   Clear
11:35 PM 39.2 °F 33.0 °F 23.0 °F 52% 29.95 in 10.0 mi West 9.2 mph - 0.00 in   Clear
11:55 PM 37.4 °F 33.8 °F 23.0 °F 56% 29.95 in 10.0 mi West 4.6 mph - 0.00 in   Clear